[Iaude] MPEC D96: 2024 DN1 [a=1.35,e=0.20,i=28.1,H=24.4]

mpec at cfa.harvard.edu mpec at cfa.harvard.edu
Wed Feb 21 01:27:40 EST 2024


M.P.E.C. 2024-D96                             Issued 2024 February 21, 06:26 UT

     The Minor Planet Electronic Circulars contain information on unusual
         minor planets, routine data on comets and natural satellites,
         and occasional editorial announcements.  They are published
    on behalf of Division F of the International Astronomical Union by the
          Minor Planet Center, Smithsonian Astrophysical Observatory,
                          Cambridge, MA 02138, U.S.A.
			  
             Prepared using the Tamkin Foundation Computer Network

                              MPC at CFA.HARVARD.EDU
            URL https://www.minorplanetcenter.net/    ISSN 1523-6714

                                    2024 DN1                                    


Observations:
     K24D01N*1C2024 02 19.30757411 26 16.357+11 39 01.58         20.09GVED096G96
     K24D01N 1C2024 02 19.31270511 26 17.930+11 40 32.48         20.23GVED096G96
     K24D01N 1C2024 02 19.31783111 26 19.478+11 42 02.66         20.00GVED096G96
     K24D01N 1C2024 02 19.32295611 26 21.001+11 43 32.27         20.17GVED096G96
     K24D01N  C2024 02 19.34843511 26 28.345+11 50 57.06         20.1 GVED096H01
     K24D01N  C2024 02 19.35469811 26 30.226+11 52 46.66         20.0 GVED096H01
     K24D01N  C2024 02 19.36264411 26 32.616+11 55 06.20         20.4 GVED096H01
     K24D01N  C2024 02 19.36953011 26 34.688+11 57 06.89         20.8 GVED096H01
     K24D01N KC2024 02 19.37931311 26 37.954+12 00 00.47         20.32GVED096I52
     K24D01N KC2024 02 19.38542811 26 39.782+12 01 47.75         19.99GVED096I52
     K24D01N KC2024 02 19.38849211 26 40.697+12 02 41.28         20.17GVED096I52
     K24D01N 1C2024 02 19.49028111 27 15.338+12 32 44.03         20.26GVED096T12
     K24D01N 1C2024 02 19.49168111 27 15.747+12 33 08.26         20.17GVED096T12
     K24D01N 1C2024 02 19.49377111 27 16.374+12 33 45.20         20.23GVED096T12
     K24D01N KC2024 02 20.00807511 30 09.25 +15 02 54.1          20.4 GVED096L01
     K24D01N KC2024 02 20.01013611 30 09.88 +15 03 29.6          20.4 GVED096L01
     K24D01N KC2024 02 20.01194211 30 10.43 +15 04 01.3          20.2 GVED096L01
     K24D01N pC2024 02 20.01401111 30 11.07 +15 04 37.6          20.1 GVED096L01
     K24D01N KC2024 02 20.26875311 31 38.13 +16 18 30.8          20.3 GVED096H21
     K24D01N KC2024 02 20.27229611 31 39.24 +16 19 32.3          20.1 GVED096H21
     K24D01N KC2024 02 21.23540811 37 10.42 +20 54 18.7          20.5 GVED096H21
     K24D01N KC2024 02 21.23926511 37 11.64 +20 55 24.0          20.8 GVED096H21
     K24D01N KC2024 02 21.24312311 37 12.85 +20 56 29.1          20.5 GVED096H21
     K24D01N KC2024 02 21.24698011 37 14.08 +20 57 34.2          20.6 GVED096H21

Observer details:
G96 Mt. Lemmon Survey.  Observers T. Beuden, G. J. Leonard.  Measurers T.
    Beuden, V. F. Carvajal, D. Fay, J. B. Fazekas, D. C. Fuls, A. R. Gibbs, A.
    D. Grauer, H. Groeller, J. K. Hogan, R. A. Kowalski, S. M. Larson, G. J.
    Leonard, D. Rankin, R. L. Seaman, F. C. Shelly, K. W. Wierzchos.  1.5-m
    reflector + 10K CCD.
H01 Magdalena Ridge Observatory, Socorro.  Observers W. H. Ryan, E. V. Ryan.
    Measurer W. H. Ryan.  2.4-m f/8.9 Ritchey-Chretien + CCD.
H21 Astronomical Research Observatory, Westfield.  Observer R. Holmes.
    Measurers T. Linder, R. Holmes, L. Horn.  0.76-m f/3.0 astrograph + CCD.
I52 Steward Observatory, Mt. Lemmon Station.  Observer J. B. Fazekas.
    Measurers E. C. Beshore, D. Fay, J. B. Fazekas, D. C. Fuls, A. R. Gibbs,
    A. D. Grauer, H. Groeller, J. K. Hogan, R. A. Kowalski, S. M. Larson, G.
    J. Leonard, D. Rankin, R. L. Seaman, F. C. Shelly, K. W. Wierzchos.  1.0-m
    prime focus + CCD.
L01 Visnjan Observatory, Tican.  Observer K. Korlevic.  1.0-m f/2.9 reflector
    + CCD.
T12 University of Hawaii 88-inch telescope, Maunakea.  Observer Y.
    Ramanjooloo.  Measurers R. Weryk, Y. Ramanjooloo, J. Fairlamb, R.
    Wainscoat.  2.24-m f/10.1 reflector + CCD.

Orbital elements:
2024 DN1                                                 Earth MOID = 0.0935 AU
Epoch 2024 Mar. 31.0 TT = JDT 2460400.5                 MPC                     
M  27.37934              (2000.0)            P               Q                  
n   0.62811388     Peri.  358.63641     -0.85653212     -0.45956181             
a   1.3503420      Node   150.13783     +0.47785952     -0.87809336             
e   0.1990066      Incl.   28.14286     +0.19494362     +0.13324787             
P   1.57           H   24.47          G   0.15           U   8                  
Residuals in seconds of arc
240219 G96  0.2-  0.3-    240219 I52  0.1+  0.1-    240220 L01  0.3-  0.1+
240219 G96  0.1+  0.5+    240219 I52  0.0   0.0     240220 L01  0.3-  0.4+
240219 G96  0.1+  0.6+    240219 I52  0.1-  0.1-    240220 H21  0.1+  0.1-
240219 G96  0.2-  0.2+    240219 T12  0.0   0.1+    240220 H21  0.2+  0.1-
240219 H01  0.0   0.1-    240219 T12  0.1-  0.2-    240221 H21  0.2+  0.1+
240219 H01  0.1-  0.3-    240219 T12  0.0   0.1+    240221 H21  0.1+  0.1+
240219 H01  0.0   0.0     240220 L01  0.0   0.3+    240221 H21  0.2-  0.0
240219 H01  0.0   0.0     240220 L01  0.1-  0.1-    240221 H21  0.2-  0.2-

Ephemeris:
2024 DN1                 a,e,i = 1.35, 0.20, 28                  q = 1.0816
Date    TT    R. A. (2000) Decl.     Delta      r    Elong.  Phase     V
2024 01 22    09 40 32.6 -48 52 21   0.2651  1.0975   108.5    58.2    23.9
...
2024 02 06    10 24 57.5 -34 51 32   0.1533  1.0843   126.6    46.9    22.3
...
2024 02 14    10 58 49.0 -12 28 23   0.1088  1.0817   148.6    28.4    21.1
...
2024 02 20    11 30 05.7 +15 01 04   0.09868 1.0819   160.2    18.0    20.5
2024 02 21    11 35 46.6 +19 48 11   0.09974 1.0821   158.4    19.6    20.6
2024 02 22    11 41 34.5 +24 26 08   0.1016  1.0824   155.8    22.0    20.7
...
2024 02 28    12 18 10.6 +46 34 45   0.1257  1.0850   136.5    38.9    21.7
...
2024 03 07    13 07 18.3 +61 39 26   0.1777  1.0912   119.6    52.3    22.8
...
2024 03 22    14 15 21.9 +70 27 14   0.2894  1.1107   105.8    59.7    24.1

A. U. Tomatic                (C) Copyright 2024 MPC           M.P.E.C. 2024-D96





More information about the Iaude mailing list